Regional Weather Roundup
Issued by NWS

Home | Current Version | Previous Version | Text Only | Print | Product List | Glossary Off
Versions: 1 2 3 4 5 6 7 8 9 10 11 12 13 14 15 16 17 18 19 20 21 22 23 24 25 26 27 28 29 30 31 32 33 34 35 36 37 38 39 40 41 42 43 44 45 46 47 48 49 50

000
ASUS43 KLOT 011603
RWRIL

ILLINOIS REGIONAL WEATHER ROUNDUP
NATIONAL WEATHER SERVICE CHICAGO/ROMEOVILLE IL
1100 AM CDT SUN MAY 01 2016

NOTE: "FAIR" INDICATES FEW OR NO CLOUDS BELOW 12,000 FEET WITH NO
SIGNIFICANT WEATHER AND/OR OBSTRUCTIONS TO VISIBILITY.

* THESE STATIONS ARE NOT UNDER NWS QUALITY CONTROL. THEY ALSO MAY NOT
  REPORT WEATHER SUCH AS PRECIPITATION OR FOG.

ILZ001-002-007-009-015-016-024-011700-
NORTHWEST ILLINOIS

CITY           SKY/WX    TMP DP  RH WIND       PRES   REMARKS
MOLINE         CLOUDY    49  45  86 E14       29.98R FOG
STERLING*      CLOUDY    48  45  87 NE10      30.01R
$$

ILZ003-004-008-010-011-017-018-011700-
NORTH CENTRAL ILLINOIS

CITY           SKY/WX    TMP DP  RH WIND       PRES   REMARKS
ROCKFORD       CLOUDY    48  44  86 NE14      30.03F
FREEPORT*      CLOUDY    46  44  92 NE12      30.03S
DE KALB*       CLOUDY    46  45  95 NE16      30.01S
$$

ILZ005-006-012>014-019>023-011700-
NORTHEAST ILLINOIS

CITY           SKY/WX    TMP DP  RH WIND       PRES   REMARKS
CHICAGO-OHARE  FOG       45  44  97 NE16      30.00S VSB 1/4
CHICAGO-MIDWAY CLOUDY    46  44  93 N12       30.00S FOG
AURORA         CLOUDY    48  45  89 NE16      30.00S FOG
LANSING*       CLOUDY    46  46  99 N5        29.99R FOG
WAUKEGAN       CLOUDY    44  43  96 N10G22    30.02R FOG
DUPAGE AIRPORT CLOUDY    46  43  89 NE9G21    30.00R FOG
WHEELING       CLOUDY    45  44  97 NE10G18   30.01F FOG
NORTHERLY ISL    N/A     44  43  96 NW9         N/A
NORTHERLY ISL    N/A     44  43  96 NW9         N/A
$$

LMZ740>746-011700-
SOUTHERN LAKE MICHIGAN

STATION/POSITION SKY/WX   TEMP    WIND        PRES    VSBY  WAVE
                          AIR SEA DIR/SP/G                  HT/PER
                          (F)     (DEG/KT/KT) (MB)    (MI)  (FT/S)
SOUTHERN BUOY              42 40   40/ 12/ 14 1016.3          3/ 4
HARRISON CRIB              43      20/ 16/ 17   N/A
BURNHAM HARBOR             44      10/  9/ 12   N/A
CALUMET HARBOR             44     340/  8/ 14 1015.2R
BURNS HARBOR               45      40/ 13/ 18 1015.6S
MICHIGAN CITY              44     360/ 14/ 16   N/A
ST. JOSEPH                 47 48                N/A           2/ 4
$$

ILZ025>027-034>036-040-047-049-050-058-095>099-011700-
WEST-CENTRAL ILLINOIS

CITY           SKY/WX    TMP DP  RH WIND       PRES   REMARKS
QUINCY         CLOUDY    54  51  90 N5        29.95R
MACOMB*        CLOUDY    52  52  99 NE10      29.98S
$$

ILZ028>032-037-038-041>044-048-051>054-059>061-011700-
CENTRAL ILLINOIS

CITY           SKY/WX    TMP DP  RH WIND       PRES   REMARKS
BLOOMINGTON    CLOUDY    53  53 100 NE13      29.97R FOG
DECATUR        CLOUDY    58  54  86 NE7       29.96R
PEORIA         CLOUDY    52  48  86 E7        29.97R FOG
SPRINGFIELD    CLOUDY    56  53  90 NE6       29.96R FOG
TAYLORVILLE    NOT AVBL
$$

ILZ033-039-045-046-055>057-062-063-011700-
EAST-CENTRAL ILLINOIS

CITY           SKY/WX    TMP DP  RH WIND       PRES   REMARKS
CHAMPAIGN      CLOUDY    57  55  93 NE7       29.95R
MATTOON        CLOUDY    59  54  83 NE6       29.95R
$$

ILZ079-100>102-011700-
SOUTHWEST ILLINOIS

CITY           SKY/WX    TMP DP  RH WIND       PRES   REMARKS
ALTON          CLOUDY    61  57  88 N9        29.94R
BELLEVILLE     CLOUDY    67  64  89 CALM      29.92R
CAHOKIA*       CLOUDY    66  59  78 NW8       29.93R
SPARTA*        PTSUNNY   67  61  81 SW5       29.94S
$$

ILZ064>066-069>071-074>076-080>082-084>086-088>090-092>094-011700-
SOUTH-CENTRAL ILLINOIS

CITY           SKY/WX    TMP DP  RH WIND       PRES   REMARKS
CARBONDALE     NOT AVBL
MARION         PTSUNNY   73  63  68 W9        29.93R
MT. VERNON     MOSUNNY   73  63  68 SW13      29.94R
SALEM*         CLOUDY    71  63  74 W7        29.93R
$$

ILZ067-068-072-073-078-083-087-091-011700-
SOUTHEAST ILLINOIS

CITY           SKY/WX    TMP DP  RH WIND       PRES   REMARKS
LAWRENCEVILLE  SUNNY     72  61  68 CALM        N/A
FLORA*         MOSUNNY   72  61  67 E3        29.93R
HARRISBURG*    PTSUNNY   74  65  74 SW9       29.93R
ROBINSON*      SUNNY     69  61  75 N6        29.94S
$$

ABBREVIATIONS USED IN REMARKS
   TC - TEMPERATURE IN CELSIUS
  WCI - WIND CHILL INDEX
   HX - HEAT INDEX
  VSB - VISIBILITY
$$





USA.gov is the U.S. government's official web portal to all federal, state and local government web resources and services.